Back to catalog

STARLINK-5050

AliveCommunicationsVLEO
NORAD 53890·PAYLOAD·🇺🇸 United States

Launched Sep 24, 2022 from Cape Canaveral Space Force Station

Loading…

Next Passes (next 24 hours)

TLE

FreshSource: CelesTrak SupGP

Epoch: Sep 14, 2026, 14:04 UTC

1 53890C 22119E   26257.58659722  .00039739  00000+0  12789-2 0  2572
2 53890  53.1572 151.2935 0001284  95.2878 266.9477 15.31658097    17

Track STARLINK-5050 in real time with AllMySat

Download on the App Store